Weather History for KSPS - May, 2013

Change the Weather History Date:

Saturday, May 25, 2013

  Actual Average Record
Temperature  
Mean Temperature 75 °F 74 °F  
Max Temperature 82 °F 86 °F 100 °F (1984)
Min Temperature 67 °F 62 °F 48 °F (1947)
Cooling Degree Days 10 9  
Month to date cooling degree days 194 164  
Year to date cooling degree days 271 256  
Growing Degree Days 24 (Base 50)    
Moisture  
Dew Point 65 °F    
Average Humidity 73    
Maximum Humidity 87    
Minimum Humidity 58    
Precipitation  
Precipitation 0.11 in 0.14 in 2.00 in (2003)
Month to date precipitation 1.62 2.95  
Year to date precipitation 7.26 10.65  
Sea Level Pressure  
Sea Level Pressure 30.06 in    
Wind  
Wind Speed 15 mph (SSE)    
Max Wind Speed 25 mph    
Max Gust Speed 32 mph    
Visibility 9 miles    
Events Rain , Thunderstorm    
T = Trace of Precipitation, MM = Missing Value Source: NWS Daily Summary

Daily Weather History Graph

Daily Weather History Graph

Search for Another Location

Airport or City:

Trip Planner

Search our weather history database for the weather conditions in past years. The results will help you decide how hot, cold, wet, or windy it might be!

Date:

Astronomy

May. 25, 2013 Rise Set
Actual Time 6:26 AM CDT 8:35 PM CDT
Civil Twilight 5:58 AM CDT 9:04 PM CDT
Nautical Twilight 5:23 AM CDT 9:38 PM CDT
Astronomical Twilight 4:46 AM CDT 10:16 PM CDT
Moon 9:25 PM CDT (5/25) 6:53 AM CDT (5/25)
Length of Visible Light 15h 06m
Length of Day
14h 09m
Full, 100% of the Moon is Illuminated
May 25
Full
May 31
Last Quarter
Jun 8
New
Jun 16
First Quarter
Jun 23
Full

Hourly Weather History & Observations

Time (CDT) Temp. Heat Index Dew Point Humidity Pressure Visibility Wind Dir Wind Speed Gust Speed Precip Events Conditions
12:52 AM 66.9 °F - 62.1 °F 84% 30.11 in 10.0 mi East 15.0 mph - N/A   Clear
1:52 AM 68.0 °F - 62.1 °F 81% 30.12 in 10.0 mi ESE 16.1 mph - N/A   Mostly Cloudy
2:52 AM 68.0 °F - 62.1 °F 81% 30.08 in 10.0 mi SSE 8.1 mph - N/A   Overcast
3:52 AM 68.0 °F - 62.1 °F 81% 30.08 in 10.0 mi South 12.7 mph - N/A   Partly Cloudy
4:52 AM 69.1 °F - 61.0 °F 75% 30.06 in 10.0 mi South 13.8 mph - N/A   Overcast
5:52 AM 68.0 °F - 61.0 °F 78% 30.06 in 10.0 mi SSE 11.5 mph - N/A   Overcast
6:52 AM 70.0 °F - 59.0 °F 68% 30.04 in 10.0 mi South 11.5 mph - N/A   Overcast
7:52 AM 70.0 °F - 61.0 °F 73% 30.06 in 10.0 mi South 15.0 mph - N/A   Clear
8:52 AM 72.0 °F - 62.1 °F 71% 30.10 in 10.0 mi SE 10.4 mph - N/A   Overcast
9:22 AM 71.6 °F - 62.6 °F 73% 30.14 in 10.0 mi SE 10.4 mph - N/A   Overcast
9:52 AM 73.9 °F - 63.0 °F 68% 30.11 in 10.0 mi SE 12.7 mph - N/A   Mostly Cloudy
10:01 AM 73.4 °F - 64.4 °F 73% 30.14 in 10.0 mi SE 11.5 mph - N/A   Mostly Cloudy
10:52 AM 77.0 °F - 66.0 °F 69% 30.10 in 10.0 mi SSE 16.1 mph - N/A   Overcast
11:32 AM 78.8 °F - 66.2 °F 65% 30.12 in 10.0 mi South 18.4 mph 24.2 mph N/A   Mostly Cloudy
11:52 AM 79.0 °F - 66.0 °F 64% 30.08 in 10.0 mi SSE 17.3 mph 23.0 mph N/A   Mostly Cloudy
12:42 PM 78.8 °F - 66.2 °F 65% 30.11 in 10.0 mi South 15.0 mph - N/A   Overcast
12:52 PM 79.0 °F - 66.9 °F 66% 30.07 in 10.0 mi South 11.5 mph - N/A   Overcast
1:34 PM 71.6 °F - 69.8 °F 94% 30.09 in 1.8 mi SSE 15.0 mph 25.3 mph 0.05 in Rain Heavy Rain
1:40 PM 71.6 °F - 69.8 °F 94% 30.09 in 3.0 mi SE 13.8 mph - 0.06 in Rain Light Rain
1:52 PM 72.0 °F - 68.0 °F 87% 30.06 in 10.0 mi SE 16.1 mph - 0.06 in Thunderstorm Overcast
2:35 PM 73.4 °F - 69.8 °F 88% 30.07 in 2.5 mi SE 16.1 mph - 0.04 in Rain , Thunderstorm Light Rain
2:43 PM 75.2 °F - 71.6 °F 89% 30.07 in 9.0 mi SE 15.0 mph - 0.04 in   Mostly Cloudy
2:52 PM 73.0 °F - 71.1 °F 93% 30.04 in 5.0 mi SSE 15.0 mph - 0.04 in Rain Light Rain
3:43 PM 73.4 °F - 68.0 °F 83% 30.06 in 10.0 mi SE 18.4 mph 24.2 mph 0.01 in Thunderstorm Mostly Cloudy
3:52 PM 75.0 °F - 70.0 °F 84% 30.03 in 10.0 mi SE 20.7 mph 25.3 mph 0.01 in   Overcast
4:52 PM 78.1 °F - 66.0 °F 66% 30.00 in 10.0 mi SSE 20.7 mph 26.5 mph N/A   Scattered Clouds
5:52 PM 80.1 °F 82.3 °F 66.9 °F 64% 29.97 in 10.0 mi South 19.6 mph 26.5 mph N/A   Clear
6:52 PM 81.0 °F 82.7 °F 64.9 °F 58% 29.95 in 10.0 mi SSE 20.7 mph 27.6 mph N/A   Clear
7:52 PM 77.0 °F - 66.0 °F 69% 29.95 in 10.0 mi SSE 18.4 mph - N/A   Scattered Clouds
8:52 PM 75.0 °F - 66.9 °F 76% 29.96 in 10.0 mi SE 17.3 mph - N/A   Scattered Clouds
9:52 PM 73.0 °F - 66.9 °F 81% 29.97 in 10.0 mi SE 9.2 mph - N/A   Partly Cloudy
10:52 PM 72.0 °F - 66.9 °F 84% 29.99 in 10.0 mi SSE 11.5 mph - N/A   Clear
11:52 PM 71.1 °F - 66.0 °F 84% 30.00 in 10.0 mi South 12.7 mph - N/A   Clear